Regional Weather Roundup
Issued by NWS

Home | Current Version | Previous Version | Graphics & Text | Print | Product List | Glossary On
Versions: 1 2 3 4 5 6 7 8 9 10 11 12 13 14 15 16 17 18 19 20 21 22 23 24 25 26 27 28 29 30 31 32 33 34 35 36 37 38 39 40 41 42 43 44 45 46 47 48 49 50
256
ASUS45 KSLC 310510
RWRUT

UTAH REGIONAL WEATHER ROUNDUP
NATIONAL WEATHER SERVICE SALT LAKE CITY UT
1100 PM MDT TUE AUG 30 2016

UTZ001>011-023>025-310600-

NORTHERN UTAH

CITY           SKY/WX    TMP DP  RH WIND       PRES   REMARKS
BRIGHAM CITY     N/A     76  33  20 W5        30.03S
HILL AFB       MOCLDY    80  33  18 E14       30.06F
LOGAN          CLOUDY    67  46  47 CALM      30.05F
OGDEN          MOCLDY    77  34  21 CALM      30.03F
PROVO AIRPORT  NOT AVBL
SALT LAKE CITY PTCLDY    79  38  22 SE7       30.02F
VERNAL         CLEAR     66  36  32 W5        30.17S
WENDOVER       MOCLDY    79  28  15 W7        30.02S
HEBER CITY     CLEAR     66  32  28 CALM      30.17R
WEST JORDAN    PTCLDY    73  35  24 SW3       30.07S

$$

UTZ012>022-026-027-310600-

SOUTHERN/CENTRAL UTAH

CITY           SKY/WX    TMP DP  RH WIND       PRES   REMARKS
BLANDING       CLEAR     64  41  42 N8        30.31S
BRYCE CANYON   MOCLDY    53  44  71 SW3       30.37S
CEDAR CITY     CLEAR     72  36  26 SE8       30.16S
DELTA          CLEAR     72  23  16 E6        30.06S
MILFORD        PTCLDY    77  34  21 S13       30.10R
MOAB/CYNLANDS  CLEAR     71  32  23 SW6       30.09S
PRICE          CLEAR     73  29  19 E7        30.22R
ST GEORGE      CLEAR     82  43  24 SE8       29.96S

$$

REGIONAL REPORTS     COLORADO/ARIZONA

CITY           SKY/WX    TMP DP  RH WIND       PRES   REMARKS
CRAIG, CO      MOCLDY    66  38  35 E10       30.26R
GRAND JUNCTION CLEAR     72  39  30 E9        30.15R
RIFLE          CLOUDY    71  45  39 E8        30.23R
MONTROSE       CLEAR     67  45  45 S9        30.26R
CORTEZ         MOCLDY    60  50  69 CALM      30.26R
PAGE, AZ       CLEAR     77  34  21 S5        30.09R
GRAND CANYON   CLEAR     54  46  74 CALM      30.29S HAZE
KINGMAN        CLEAR     79  45  29 CALM      30.00R
FLAGSTAFF      CLEAR     53  45  74 CALM      30.32R

$$

REGIONAL REPORTS    NEVADA/IDAHO/WYOMING

CITY           SKY/WX    TMP DP  RH WIND       PRES   REMARKS
LAS VEGAS, NV  CLEAR     93  35  13 SW5       29.84S
ELY            CLEAR     64  25  22 S12       30.18S
ELKO           MOCLDY    78  24  13 N5        30.03S
POCATELLO, ID  CLOUDY    73  27  18 E5        30.03F
BURLEY         PTCLDY    72  37  28 S6        29.97S
EVANSTON, WY   CLOUDY    66  21  18 VRB3      30.30S
ROCK SPRINGS   CLEAR     67  24  19 E13       30.29S

$$




USA.gov is the U.S. government's official web portal to all federal, state and local government web resources and services.